Tracking 29892 objects as of 21-Nov-2024
HD Live streaming from Space Station
objects crossing your sky now

COSMOS 1275 DEB

Track COSMOS 1275 DEB now!
10-day predictions


NORAD ID: 27734
Int'l Code: 1981-053MV
Perigee: 823.3 km
Apogee: 974.3 km
Inclination: 83.1 °
Period: 102.8 minutes
Semi major axis: 7269 km
RCS: 0.0056 m2 (small)
Launch date: June 4, 1981
Source: Commonwealth of Independent States (former USSR) (CIS)
Launch site: PLESETSK MISSILE AND SPACE COMPLEX (PKMTR)

Note: This is SATELLITE DEBRIS
Your satellite tracking list
Your tracking list is empty




NASA's NSSDC Master Catalog

Two Line Element Set (TLE):
1 27734U 81053MP  24324.48601443  .00004261  00000-0  27248-2 0  9993
2 27734  83.1138 144.4971 0103879 212.1032 147.3787 14.00621186475820
Source of the keplerian elements: AFSPC